Hourly Data Report for June 17, 2021

WRIGLEY A
NORTHWEST TERRITORIES
Current Station Operator: NAVCAN

63°12'35.000" N
123°26'12.000" W
149.70 m
2204005
YWY

Download Data

Hourly Data (June 2021)
Hourly Data Report for June 17, 2021
TIME
LST
Temp Definition
°C
Dew Point Definition
°C
Rel Hum Definition
%
Precip. Amount Definition
mm

Wind Dir Definition
10's deg

Wind Spd Definition
km/h
Visibility Definition
km
Stn Press Definition
kPa
Hmdx Definition


Wind Chill Definition


Weather Definition


00:00 14.6 6.7 59 LegendMM 6 1 LegendMM 99.79     LegendNANA
01:00 13.4 7.3 66 LegendMM 32 4 LegendMM 99.81     LegendNANA
02:00 11.6 7.2 74 LegendMM 8 3 LegendMM 99.87     LegendNANA
03:00 9.8 6.9 82 LegendMM 8 3 LegendMM 99.92     LegendNANA
04:00 8.9 6.3 84 LegendMM 12 6 LegendMM 99.97     LegendNANA
05:00 12.1 6.8 70 LegendMM 13 10 LegendMM 100.01     LegendNANA
06:00 12.9 7.0 67 LegendMM 12 8 LegendMM 100.04     LegendNANA
07:00 14.2 7.2 63 LegendMM 12 7 LegendMM 100.04     LegendNANA
08:00 15.5 7.2 57 LegendMM 17 7 LegendMM 100.03     LegendNANA
09:00 17.0 7.4 53 LegendMM 17 9 LegendMM 100.01     LegendNANA
10:00 18.9 6.2 43 LegendMM 18 6 LegendMM 99.99     LegendNANA
11:00 20.5 7.7 43 LegendMM 24 4 LegendMM 99.96     LegendNANA
12:00 22.0 8.1 40 LegendMM 23 7 LegendMM 99.93     LegendNANA
13:00 23.1 8.8 39 LegendMM 23 8 LegendMM 99.90     LegendNANA
14:00 24.6 6.0 30 LegendMM 30 16 LegendMM 99.85     LegendNANA
15:00 25.1 3.7 24 LegendMM 30 18 LegendMM 99.80     LegendNANA
16:00 25.6 4.9 26 LegendMM 30 20 LegendMM 99.76 25   LegendNANA
17:00 25.8 0.8 19 LegendMM 29 19 LegendMM 99.73     LegendNANA
18:00 25.6 3.4 23 LegendMM 30 14 LegendMM 99.69     LegendNANA
19:00 25.3 3.8 25 LegendMM 30 17 LegendMM 99.67     LegendNANA
20:00 24.9 4.5 26 LegendMM 31 15 LegendMM 99.65     LegendNANA
21:00 24.4 6.9 32 LegendMM 32 7 LegendMM 99.64     LegendNANA
22:00 22.8 5.1 31 LegendMM 35 5 LegendMM 99.66     LegendNANA
23:00 19.3 6.3 42 LegendMM 31 12 LegendMM 99.69     LegendNANA

Notes on Data Quality.

Legend

  • E = Estimated
  • M = Missing
  • NA = Not Available*
  • [empty] = Indicates an unobserved value
Date modified: